Location: Unspecified
(0.0000°N, 0.0000°E)
Time: 18:39:52
(UTC+00:00)

STARLINK-1059 - Pass Details

Date: 20 January 2020
Orbit: 548 x 551 km, 53.0° (Epoch: 26 February)

Event Time Altitude Azimuth Distance (km) Brightness Sun altitude
Exits shadow 04:40:25 31° 5° (N) 984 4.7 -21.1°
Drops below altitude 10° 04:42:45 10° 21° (NNE) 1,818 6.2 -20.6°
Sets 04:45:01 0° 26° (NNE) 2,711 7.2 -20.1°
